Year,Month,Day,Hour,Minute,Value (Times are PST for temperature in C)
2014,09,15,00,00,16.10
2014,09,15,00,01,16.10
2014,09,15,00,02,16.10
2014,09,15,00,03,16.10
2014,09,15,00,04,16.10
2014,09,15,00,05,16.10
2014,09,15,00,06,16.00
2014,09,15,00,07,15.90
2014,09,15,00,08,15.80
2014,09,15,00,09,15.70
2014,09,15,00,10,15.60
2014,09,15,00,11,15.50
2014,09,15,00,12,15.30
2014,09,15,00,13,15.20
2014,09,15,00,14,15.10
2014,09,15,00,15,14.90
2014,09,15,00,16,14.80
2014,09,15,00,17,14.70
2014,09,15,00,18,14.60
2014,09,15,00,19,14.50
2014,09,15,00,20,14.40
2014,09,15,00,21,14.40
2014,09,15,00,22,14.30
2014,09,15,00,23,14.30
2014,09,15,00,24,14.20
2014,09,15,00,25,14.20
2014,09,15,00,26,14.20
2014,09,15,00,27,14.20
2014,09,15,00,28,14.20
2014,09,15,00,29,14.20
2014,09,15,00,30,14.30
2014,09,15,00,31,14.30
2014,09,15,00,32,14.30
2014,09,15,00,33,14.30
2014,09,15,00,34,14.20
2014,09,15,00,35,14.20
2014,09,15,00,36,14.20
2014,09,15,00,37,14.20
2014,09,15,00,38,14.20
2014,09,15,00,39,14.20
2014,09,15,00,40,14.20
2014,09,15,00,41,14.20
2014,09,15,00,42,14.30
2014,09,15,00,43,14.30
2014,09,15,00,44,14.30
2014,09,15,00,45,14.30
2014,09,15,00,46,14.20
2014,09,15,00,47,14.20
2014,09,15,00,48,14.20
2014,09,15,00,49,14.20
2014,09,15,00,50,14.20
2014,09,15,00,51,14.20
2014,09,15,00,52,14.20
2014,09,15,00,53,14.20
2014,09,15,00,54,14.20
2014,09,15,00,55,14.20
2014,09,15,00,56,14.20
2014,09,15,00,57,14.20
2014,09,15,00,58,14.20
2014,09,15,00,59,14.20
2014,09,15,01,00,14.20
2014,09,15,01,01,14.20
2014,09,15,01,02,14.20
2014,09,15,01,03,14.30
2014,09,15,01,04,14.30
2014,09,15,01,05,14.30
2014,09,15,01,06,14.30
2014,09,15,01,07,14.20
2014,09,15,01,08,14.20
2014,09,15,01,09,14.20
2014,09,15,01,10,14.30
2014,09,15,01,11,14.30
2014,09,15,01,12,14.30
2014,09,15,01,13,14.30
2014,09,15,01,14,14.30
2014,09,15,01,15,14.40
2014,09,15,01,16,14.40
2014,09,15,01,17,14.30
2014,09,15,01,18,14.30
2014,09,15,01,19,14.30
2014,09,15,01,20,14.30
2014,09,15,01,21,14.30
2014,09,15,01,22,14.30
2014,09,15,01,23,14.30
2014,09,15,01,24,14.30
2014,09,15,01,25,14.30
2014,09,15,01,26,14.30
2014,09,15,01,27,14.20
2014,09,15,01,28,14.20
2014,09,15,01,29,14.20
2014,09,15,01,30,14.20
2014,09,15,01,31,14.10
2014,09,15,01,32,14.00
2014,09,15,01,33,14.00
2014,09,15,01,34,13.90
2014,09,15,01,35,13.90
2014,09,15,01,36,13.80
2014,09,15,01,37,13.70
2014,09,15,01,38,13.70
2014,09,15,01,39,13.70
2014,09,15,01,40,13.70
2014,09,15,01,41,13.70
2014,09,15,01,42,13.70
2014,09,15,01,43,13.70
2014,09,15,01,44,13.70
2014,09,15,01,45,13.70
2014,09,15,01,46,13.80
2014,09,15,01,47,13.90
2014,09,15,01,48,14.00
2014,09,15,01,49,14.10
2014,09,15,01,50,14.20
2014,09,15,01,51,14.20
2014,09,15,01,52,14.30
2014,09,15,01,53,14.40
2014,09,15,01,54,14.50
2014,09,15,01,55,14.50
2014,09,15,01,56,14.60
2014,09,15,01,57,14.60
2014,09,15,01,58,14.70
2014,09,15,01,59,14.70
2014,09,15,02,00,14.70
2014,09,15,02,01,14.80
2014,09,15,02,02,14.80
2014,09,15,02,03,14.80
2014,09,15,02,04,14.80
2014,09,15,02,05,14.80
2014,09,15,02,06,14.80
2014,09,15,02,07,14.80
2014,09,15,02,08,14.80
2014,09,15,02,09,14.80
2014,09,15,02,10,14.80
2014,09,15,02,11,14.70
2014,09,15,02,12,14.70
2014,09,15,02,13,14.70
2014,09,15,02,14,14.70
2014,09,15,02,15,14.70
2014,09,15,02,16,14.70
2014,09,15,02,17,14.70
2014,09,15,02,18,14.70
2014,09,15,02,19,14.70
2014,09,15,02,20,14.70
2014,09,15,02,21,14.70
2014,09,15,02,22,14.70
2014,09,15,02,23,14.70
2014,09,15,02,24,14.70
2014,09,15,02,25,14.70
2014,09,15,02,26,14.70
2014,09,15,02,27,14.70
2014,09,15,02,28,14.70
2014,09,15,02,29,14.70
2014,09,15,02,30,14.70
2014,09,15,02,31,14.70
2014,09,15,02,32,14.60
2014,09,15,02,33,14.60
2014,09,15,02,34,14.60
2014,09,15,02,35,14.50
2014,09,15,02,36,14.50
2014,09,15,02,37,14.60
2014,09,15,02,38,14.60
2014,09,15,02,39,14.60
2014,09,15,02,40,14.60
2014,09,15,02,41,14.70
2014,09,15,02,42,14.70
2014,09,15,02,43,14.70
2014,09,15,02,44,14.80
2014,09,15,02,45,14.80
2014,09,15,02,46,14.80
2014,09,15,02,47,14.90
2014,09,15,02,48,14.90
2014,09,15,02,49,14.90
2014,09,15,02,50,14.90
2014,09,15,02,51,14.90
2014,09,15,02,52,14.90
2014,09,15,02,53,14.80
2014,09,15,02,54,14.80
2014,09,15,02,55,14.80
2014,09,15,02,56,14.80
2014,09,15,02,57,14.70
2014,09,15,02,58,14.60
2014,09,15,02,59,14.50
2014,09,15,03,00,14.40
2014,09,15,03,01,14.30
2014,09,15,03,02,14.20
2014,09,15,03,03,14.20
2014,09,15,03,04,14.20
2014,09,15,03,05,14.10
2014,09,15,03,06,14.10
2014,09,15,03,07,14.00
2014,09,15,03,08,14.00
2014,09,15,03,09,13.90
2014,09,15,03,10,13.90
2014,09,15,03,11,13.80
2014,09,15,03,12,13.80
2014,09,15,03,13,13.80
2014,09,15,03,14,13.80
2014,09,15,03,15,13.80
2014,09,15,03,16,13.80
2014,09,15,03,17,13.80
2014,09,15,03,18,13.90
2014,09,15,03,19,13.90
2014,09,15,03,20,13.90
2014,09,15,03,21,14.00
2014,09,15,03,22,14.00
2014,09,15,03,23,14.00
2014,09,15,03,24,14.00
2014,09,15,03,25,14.00
2014,09,15,03,26,14.00
2014,09,15,03,27,14.00
2014,09,15,03,28,13.90
2014,09,15,03,29,13.90
2014,09,15,03,30,13.90
2014,09,15,03,31,13.90
2014,09,15,03,32,13.90
2014,09,15,03,33,13.90
2014,09,15,03,34,13.90
2014,09,15,03,35,14.00
2014,09,15,03,36,14.00
2014,09,15,03,37,14.00
2014,09,15,03,38,14.00
2014,09,15,03,39,14.00
2014,09,15,03,40,14.00
2014,09,15,03,41,14.00
2014,09,15,03,42,14.00
2014,09,15,03,43,14.00
2014,09,15,03,44,14.00
2014,09,15,03,45,14.00
2014,09,15,03,46,14.00
2014,09,15,03,47,14.00
2014,09,15,03,48,14.00
2014,09,15,03,49,14.10
2014,09,15,03,50,14.10
2014,09,15,03,51,14.10
2014,09,15,03,52,14.10
2014,09,15,03,53,14.10
2014,09,15,03,54,14.10
2014,09,15,03,55,14.10
2014,09,15,03,56,14.10
2014,09,15,03,57,14.00
2014,09,15,03,58,14.00
2014,09,15,03,59,14.00
2014,09,15,04,00,14.00
2014,09,15,04,01,14.00
2014,09,15,04,02,14.00
2014,09,15,04,03,14.00
2014,09,15,04,04,14.00
2014,09,15,04,05,14.00
2014,09,15,04,06,14.00
2014,09,15,04,07,14.00
2014,09,15,04,08,14.00
2014,09,15,04,09,14.00
2014,09,15,04,10,13.90
2014,09,15,04,11,13.90
2014,09,15,04,12,13.90
2014,09,15,04,13,13.80
2014,09,15,04,14,13.80
2014,09,15,04,15,13.70
2014,09,15,04,16,13.70
2014,09,15,04,17,13.70
2014,09,15,04,18,13.60
2014,09,15,04,19,13.50
2014,09,15,04,20,13.50
2014,09,15,04,21,13.40
2014,09,15,04,22,13.40
2014,09,15,04,23,13.30
2014,09,15,04,24,13.30
2014,09,15,04,25,13.30
2014,09,15,04,26,13.30
2014,09,15,04,27,13.20
2014,09,15,04,28,13.20
2014,09,15,04,29,13.20
2014,09,15,04,30,13.20
2014,09,15,04,31,13.10
2014,09,15,04,32,13.10
2014,09,15,04,33,13.10
2014,09,15,04,34,13.10
2014,09,15,04,35,13.10
2014,09,15,04,36,13.10
2014,09,15,04,37,13.10
2014,09,15,04,38,13.10
2014,09,15,04,39,13.10
2014,09,15,04,40,13.10
2014,09,15,04,41,13.10
2014,09,15,04,42,13.10
2014,09,15,04,43,13.00
2014,09,15,04,44,13.00
2014,09,15,04,45,13.00
2014,09,15,04,46,13.00
2014,09,15,04,47,12.90
2014,09,15,04,48,12.90
2014,09,15,04,49,12.90
2014,09,15,04,50,12.80
2014,09,15,04,51,12.80
2014,09,15,04,52,12.80
2014,09,15,04,53,12.80
2014,09,15,04,54,12.80
2014,09,15,04,55,12.70
2014,09,15,04,56,12.70
2014,09,15,04,57,12.70
2014,09,15,04,58,12.70
2014,09,15,04,59,12.70
2014,09,15,05,00,12.70
2014,09,15,05,01,12.60
2014,09,15,05,02,12.60
2014,09,15,05,03,12.60
2014,09,15,05,04,12.50
2014,09,15,05,05,12.50
2014,09,15,05,06,12.50
2014,09,15,05,07,12.40
2014,09,15,05,08,12.40
2014,09,15,05,09,12.40
2014,09,15,05,10,12.30
2014,09,15,05,11,12.30
2014,09,15,05,12,12.30
2014,09,15,05,13,12.30
2014,09,15,05,14,12.30
2014,09,15,05,15,12.30
2014,09,15,05,16,12.30
2014,09,15,05,17,12.30
2014,09,15,05,18,12.30
2014,09,15,05,19,12.20
2014,09,15,05,20,12.20
2014,09,15,05,21,12.20
2014,09,15,05,22,12.20
2014,09,15,05,23,12.20
2014,09,15,05,24,12.20
2014,09,15,05,25,12.10
2014,09,15,05,26,12.10
2014,09,15,05,27,12.10
2014,09,15,05,28,12.10
2014,09,15,05,29,12.10
2014,09,15,05,30,12.10
2014,09,15,05,31,12.10
2014,09,15,05,32,12.10
2014,09,15,05,33,12.00
2014,09,15,05,34,12.00
2014,09,15,05,35,12.00
2014,09,15,05,36,12.00
2014,09,15,05,37,12.00
2014,09,15,05,38,12.00
2014,09,15,05,39,11.90
2014,09,15,05,40,11.90
2014,09,15,05,41,11.90
2014,09,15,05,42,11.90
2014,09,15,05,43,11.90
2014,09,15,05,44,11.90
2014,09,15,05,45,11.90
2014,09,15,05,46,11.90
2014,09,15,05,47,11.90
2014,09,15,05,48,11.90
2014,09,15,05,49,11.90
2014,09,15,05,50,12.00
2014,09,15,05,51,12.00
2014,09,15,05,52,12.00
2014,09,15,05,53,12.00
2014,09,15,05,54,12.00
2014,09,15,05,55,12.00
2014,09,15,05,56,12.00
2014,09,15,05,57,12.10
2014,09,15,05,58,12.10
2014,09,15,05,59,12.10
2014,09,15,06,00,12.10
2014,09,15,06,01,12.10
2014,09,15,06,02,12.10
2014,09,15,06,03,12.10
2014,09,15,06,04,12.10
2014,09,15,06,05,12.10
2014,09,15,06,06,12.10
2014,09,15,06,07,12.00
2014,09,15,06,08,12.00
2014,09,15,06,09,12.00
2014,09,15,06,10,11.90
2014,09,15,06,11,11.90
2014,09,15,06,12,11.90
2014,09,15,06,13,11.80
2014,09,15,06,14,11.80
2014,09,15,06,15,11.80
2014,09,15,06,16,11.70
2014,09,15,06,17,11.70
2014,09,15,06,18,11.70
2014,09,15,06,19,11.60
2014,09,15,06,20,11.60
2014,09,15,06,21,11.60
2014,09,15,06,22,11.60
2014,09,15,06,23,11.60
2014,09,15,06,24,11.60
2014,09,15,06,25,11.60
2014,09,15,06,26,11.60
2014,09,15,06,27,11.60
2014,09,15,06,28,11.60
2014,09,15,06,29,11.60
2014,09,15,06,30,11.60
2014,09,15,06,31,11.60
2014,09,15,06,32,11.60
2014,09,15,06,33,11.60
2014,09,15,06,34,11.60
2014,09,15,06,35,11.60
2014,09,15,06,36,11.60
2014,09,15,06,37,11.60
2014,09,15,06,38,11.60
2014,09,15,06,39,11.60
2014,09,15,06,40,11.60
2014,09,15,06,41,11.50
2014,09,15,06,42,11.40
2014,09,15,06,43,11.40
2014,09,15,06,44,11.40
2014,09,15,06,45,11.30
2014,09,15,06,46,11.30
2014,09,15,06,47,11.30
2014,09,15,06,48,11.20
2014,09,15,06,49,11.20
2014,09,15,06,50,11.20
2014,09,15,06,51,11.20
2014,09,15,06,52,11.20
2014,09,15,06,53,11.30
2014,09,15,06,54,11.30
2014,09,15,06,55,11.30
2014,09,15,06,56,11.40
2014,09,15,06,57,11.40
2014,09,15,06,58,11.40
2014,09,15,06,59,11.40
2014,09,15,07,00,11.40
2014,09,15,07,01,11.40
2014,09,15,07,02,11.40
2014,09,15,07,03,11.40
2014,09,15,07,04,11.50
2014,09,15,07,05,11.60
2014,09,15,07,06,11.60
2014,09,15,07,07,11.60
2014,09,15,07,08,11.60
2014,09,15,07,09,11.60
2014,09,15,07,10,11.60
2014,09,15,07,11,11.60
2014,09,15,07,12,11.70
2014,09,15,07,13,11.70
2014,09,15,07,14,11.80
2014,09,15,07,15,11.80
2014,09,15,07,16,11.90
2014,09,15,07,17,11.90
2014,09,15,07,18,12.00
2014,09,15,07,19,12.00
2014,09,15,07,20,12.10
2014,09,15,07,21,12.10
2014,09,15,07,22,12.20
2014,09,15,07,23,12.30
2014,09,15,07,24,12.30
2014,09,15,07,25,12.40
2014,09,15,07,26,12.50
2014,09,15,07,27,12.50
2014,09,15,07,28,12.60
2014,09,15,07,29,12.70
2014,09,15,07,30,12.70
2014,09,15,07,31,12.80
2014,09,15,07,32,12.80
2014,09,15,07,33,12.90
2014,09,15,07,34,12.90
2014,09,15,07,35,12.90
2014,09,15,07,36,13.00
2014,09,15,07,37,13.00
2014,09,15,07,38,13.10
2014,09,15,07,39,13.10
2014,09,15,07,40,13.10
2014,09,15,07,41,13.20
2014,09,15,07,42,13.30
2014,09,15,07,43,13.30
2014,09,15,07,44,13.30
2014,09,15,07,45,13.40
2014,09,15,07,46,13.50
2014,09,15,07,47,13.60
2014,09,15,07,48,13.60
2014,09,15,07,49,13.70
2014,09,15,07,50,13.70
2014,09,15,07,51,13.80
2014,09,15,07,52,13.80
2014,09,15,07,53,13.90
2014,09,15,07,54,13.90
2014,09,15,07,55,13.80
2014,09,15,07,56,13.80
2014,09,15,07,57,13.80
2014,09,15,07,58,13.80
2014,09,15,07,59,13.80
2014,09,15,08,00,13.80
2014,09,15,08,01,13.90
2014,09,15,08,02,13.90
2014,09,15,08,03,13.90
2014,09,15,08,04,13.90
2014,09,15,08,05,13.90
2014,09,15,08,06,13.90
2014,09,15,08,07,14.00
2014,09,15,08,08,14.00
2014,09,15,08,09,14.00
2014,09,15,08,10,14.10
2014,09,15,08,11,14.10
2014,09,15,08,12,14.20
2014,09,15,08,13,14.20
2014,09,15,08,14,14.20
2014,09,15,08,15,14.20
2014,09,15,08,16,14.30
2014,09,15,08,17,14.30
2014,09,15,08,18,14.40
2014,09,15,08,19,14.40
2014,09,15,08,20,14.50
2014,09,15,08,21,14.50
2014,09,15,08,22,14.50
2014,09,15,08,23,14.60
2014,09,15,08,24,14.60
2014,09,15,08,25,14.60
2014,09,15,08,26,14.60
2014,09,15,08,27,14.70
2014,09,15,08,28,14.70
2014,09,15,08,29,14.80
2014,09,15,08,30,14.80
2014,09,15,08,31,14.90
2014,09,15,08,32,15.00
2014,09,15,08,33,15.00
2014,09,15,08,34,15.10
2014,09,15,08,35,15.20
2014,09,15,08,36,15.30
2014,09,15,08,37,15.50
2014,09,15,08,38,15.60
2014,09,15,08,39,15.70
2014,09,15,08,40,15.80
2014,09,15,08,41,15.90
2014,09,15,08,42,16.00
2014,09,15,08,43,16.10
2014,09,15,08,44,16.10
2014,09,15,08,45,16.20
2014,09,15,08,46,16.20
2014,09,15,08,47,16.30
2014,09,15,08,48,16.30
2014,09,15,08,49,16.40
2014,09,15,08,50,16.40
2014,09,15,08,51,16.40
2014,09,15,08,52,16.50
2014,09,15,08,53,16.60
2014,09,15,08,54,16.70
2014,09,15,08,55,16.70
2014,09,15,08,56,16.80
2014,09,15,08,57,16.90
2014,09,15,08,58,16.90
2014,09,15,08,59,17.00
2014,09,15,09,00,17.10
2014,09,15,09,01,17.20
2014,09,15,09,02,17.30
2014,09,15,09,03,17.40
2014,09,15,09,04,17.50
2014,09,15,09,05,17.50
2014,09,15,09,06,17.60
2014,09,15,09,07,17.70
2014,09,15,09,08,17.80
2014,09,15,09,09,17.90
2014,09,15,09,10,17.90
2014,09,15,09,11,18.00
2014,09,15,09,12,18.10
2014,09,15,09,13,18.20
2014,09,15,09,14,18.20
2014,09,15,09,15,18.40
2014,09,15,09,16,18.50
2014,09,15,09,17,18.50
2014,09,15,09,18,18.60
2014,09,15,09,19,18.60
2014,09,15,09,20,18.70
2014,09,15,09,21,18.70
2014,09,15,09,22,18.80
2014,09,15,09,23,18.90
2014,09,15,09,24,18.90
2014,09,15,09,25,18.90
2014,09,15,09,26,19.00
2014,09,15,09,27,19.10
2014,09,15,09,28,19.20
2014,09,15,09,29,19.30
2014,09,15,09,30,19.40
2014,09,15,09,31,19.40
2014,09,15,09,32,19.50
2014,09,15,09,33,19.50
2014,09,15,09,34,19.60
2014,09,15,09,35,19.60
2014,09,15,09,36,19.60
2014,09,15,09,37,19.70
2014,09,15,09,38,19.70
2014,09,15,09,39,19.80
2014,09,15,09,40,19.90
2014,09,15,09,41,19.90
2014,09,15,09,42,19.90
2014,09,15,09,43,20.00
2014,09,15,09,44,20.10
2014,09,15,09,45,20.10
2014,09,15,09,46,20.20
2014,09,15,09,47,20.20
2014,09,15,09,48,20.20
2014,09,15,09,49,20.20
2014,09,15,09,50,20.20
2014,09,15,09,51,20.20
2014,09,15,09,52,20.20
2014,09,15,09,53,20.20
2014,09,15,09,54,20.30
2014,09,15,09,55,20.30
2014,09,15,09,56,20.40
2014,09,15,09,57,20.50
2014,09,15,09,58,20.50
2014,09,15,09,59,20.60
2014,09,15,10,00,20.60
2014,09,15,10,01,20.70
2014,09,15,10,02,20.70
2014,09,15,10,03,20.70
2014,09,15,10,04,20.70
2014,09,15,10,05,20.70
2014,09,15,10,06,20.70
2014,09,15,10,07,20.70
2014,09,15,10,08,20.70
2014,09,15,10,09,20.60
2014,09,15,10,10,20.70
2014,09,15,10,11,20.70
2014,09,15,10,12,20.70
2014,09,15,10,13,20.70
2014,09,15,10,14,20.70
2014,09,15,10,15,20.70
2014,09,15,10,16,20.70
2014,09,15,10,17,20.80
2014,09,15,10,18,20.80
2014,09,15,10,19,20.80
2014,09,15,10,20,20.80
2014,09,15,10,21,20.90
2014,09,15,10,22,20.90
2014,09,15,10,23,20.90
2014,09,15,10,24,20.90
2014,09,15,10,25,21.00
2014,09,15,10,26,20.90
2014,09,15,10,27,20.90
2014,09,15,10,28,21.00
2014,09,15,10,29,21.00
2014,09,15,10,30,20.90
2014,09,15,10,31,20.90
2014,09,15,10,32,21.00
2014,09,15,10,33,21.10
2014,09,15,10,34,21.20
2014,09,15,10,35,21.30
2014,09,15,10,36,21.30
2014,09,15,10,37,21.30
2014,09,15,10,38,21.30
2014,09,15,10,39,21.30
2014,09,15,10,40,21.40
2014,09,15,10,41,21.40
2014,09,15,10,42,21.40
2014,09,15,10,43,21.40
2014,09,15,10,44,21.40
2014,09,15,10,45,21.30
2014,09,15,10,46,21.30
2014,09,15,10,47,21.30
2014,09,15,10,48,21.40
2014,09,15,10,49,21.50
2014,09,15,10,50,21.60
2014,09,15,10,51,21.70
2014,09,15,10,52,21.80
2014,09,15,10,53,21.90
2014,09,15,10,54,21.90
2014,09,15,10,55,22.00
2014,09,15,10,56,22.00
2014,09,15,10,57,21.90
2014,09,15,10,58,21.90
2014,09,15,10,59,21.90
2014,09,15,11,00,21.90
2014,09,15,11,01,22.00
2014,09,15,11,02,22.00
2014,09,15,11,03,21.90
2014,09,15,11,04,21.80
2014,09,15,11,05,21.70
2014,09,15,11,06,21.70
2014,09,15,11,07,21.70
2014,09,15,11,08,21.80
2014,09,15,11,09,21.70
2014,09,15,11,10,21.70
2014,09,15,11,11,21.80
2014,09,15,11,12,21.90
2014,09,15,11,13,21.90
2014,09,15,11,14,22.00
2014,09,15,11,15,22.10
2014,09,15,11,16,22.20
2014,09,15,11,17,22.20
2014,09,15,11,18,22.20
2014,09,15,11,19,22.20
2014,09,15,11,20,22.20
2014,09,15,11,21,22.20
2014,09,15,11,22,22.30
2014,09,15,11,23,22.30
2014,09,15,11,24,22.20
2014,09,15,11,25,22.20
2014,09,15,11,26,22.10
2014,09,15,11,27,22.20
2014,09,15,11,28,22.30
2014,09,15,11,29,22.30
2014,09,15,11,30,22.40
2014,09,15,11,31,22.40
2014,09,15,11,32,22.30
2014,09,15,11,33,22.30
2014,09,15,11,34,22.40
2014,09,15,11,35,22.50
2014,09,15,11,36,22.60
2014,09,15,11,37,22.70
2014,09,15,11,38,22.80
2014,09,15,11,39,22.90
2014,09,15,11,40,22.90
2014,09,15,11,41,22.90
2014,09,15,11,42,22.90
2014,09,15,11,43,22.90
2014,09,15,11,44,22.90
2014,09,15,11,45,22.90
2014,09,15,11,46,22.90
2014,09,15,11,47,22.90
2014,09,15,11,48,22.90
2014,09,15,11,49,22.90
2014,09,15,11,50,22.90
2014,09,15,11,51,22.90
2014,09,15,11,52,22.90
2014,09,15,11,53,22.90
2014,09,15,11,54,23.00
2014,09,15,11,55,23.10
2014,09,15,11,56,23.10
2014,09,15,11,57,23.10
2014,09,15,11,58,23.20
2014,09,15,11,59,23.30
2014,09,15,12,00,23.30
2014,09,15,12,01,23.40
2014,09,15,12,02,23.50
2014,09,15,12,03,23.40
2014,09,15,12,04,23.30
2014,09,15,12,05,23.20
2014,09,15,12,06,23.00
2014,09,15,12,07,22.90
2014,09,15,12,08,22.90
2014,09,15,12,09,22.90
2014,09,15,12,10,22.90
2014,09,15,12,11,23.00
2014,09,15,12,12,23.10
2014,09,15,12,13,23.20
2014,09,15,12,14,23.20
2014,09,15,12,15,23.10
2014,09,15,12,16,23.10
2014,09,15,12,17,23.10
2014,09,15,12,18,23.20
2014,09,15,12,19,23.30
2014,09,15,12,20,23.40
2014,09,15,12,21,23.50
2014,09,15,12,22,23.60
2014,09,15,12,23,23.70
2014,09,15,12,24,23.80
2014,09,15,12,25,23.90
2014,09,15,12,26,23.90
2014,09,15,12,27,23.90
2014,09,15,12,28,24.00
2014,09,15,12,29,24.10
2014,09,15,12,30,24.10
2014,09,15,12,31,24.10
2014,09,15,12,32,24.10
2014,09,15,12,33,24.20
2014,09,15,12,34,24.30
2014,09,15,12,35,24.40
2014,09,15,12,36,24.40
2014,09,15,12,37,24.50
2014,09,15,12,38,24.60
2014,09,15,12,39,24.60
2014,09,15,12,40,24.70
2014,09,15,12,41,24.80
2014,09,15,12,42,24.80
2014,09,15,12,43,24.90
2014,09,15,12,44,24.90
2014,09,15,12,45,24.90
2014,09,15,12,46,24.90
2014,09,15,12,47,24.90
2014,09,15,12,48,24.90
2014,09,15,12,49,24.90
2014,09,15,12,50,24.90
2014,09,15,12,51,24.90
2014,09,15,12,52,24.90
2014,09,15,12,53,24.90
2014,09,15,12,54,24.90
2014,09,15,12,55,25.00
2014,09,15,12,56,25.00
2014,09,15,12,57,25.00
2014,09,15,12,58,24.90
2014,09,15,12,59,24.90
2014,09,15,13,00,24.80
2014,09,15,13,01,24.70
2014,09,15,13,02,24.70
2014,09,15,13,03,24.70
2014,09,15,13,04,24.80
2014,09,15,13,05,24.90
2014,09,15,13,06,24.90
2014,09,15,13,07,24.90
2014,09,15,13,08,24.90
2014,09,15,13,09,24.80
2014,09,15,13,10,24.70
2014,09,15,13,11,24.80
2014,09,15,13,12,24.80
2014,09,15,13,13,24.90
2014,09,15,13,14,24.90
2014,09,15,13,15,24.80
2014,09,15,13,16,24.90
2014,09,15,13,17,24.90
2014,09,15,13,18,25.00
2014,09,15,13,19,25.00
2014,09,15,13,20,25.10
2014,09,15,13,21,25.10
2014,09,15,13,22,25.20
2014,09,15,13,23,25.20
2014,09,15,13,24,25.40
2014,09,15,13,25,25.40
2014,09,15,13,26,25.50
2014,09,15,13,27,25.50
2014,09,15,13,28,25.60
2014,09,15,13,29,25.60
2014,09,15,13,30,25.50
2014,09,15,13,31,25.40
2014,09,15,13,32,25.20
2014,09,15,13,33,25.10
2014,09,15,13,34,25.20
2014,09,15,13,35,25.20
2014,09,15,13,36,25.30
2014,09,15,13,37,25.30
2014,09,15,13,38,25.20
2014,09,15,13,39,25.20
2014,09,15,13,40,25.20
2014,09,15,13,41,25.10
2014,09,15,13,42,25.10
2014,09,15,13,43,25.10
2014,09,15,13,44,25.10
2014,09,15,13,45,25.10
2014,09,15,13,46,25.10
2014,09,15,13,47,25.00
2014,09,15,13,48,25.00
2014,09,15,13,49,25.10
2014,09,15,13,50,25.20
2014,09,15,13,51,25.40
2014,09,15,13,52,25.50
2014,09,15,13,53,25.60
2014,09,15,13,54,25.60
2014,09,15,13,55,25.70
2014,09,15,13,56,25.70
2014,09,15,13,57,25.70
2014,09,15,13,58,25.70
2014,09,15,13,59,25.80
2014,09,15,14,00,25.90
2014,09,15,14,01,25.90
2014,09,15,14,02,26.00
2014,09,15,14,03,26.00
2014,09,15,14,04,26.10
2014,09,15,14,05,26.10
2014,09,15,14,06,26.10
2014,09,15,14,07,26.00
2014,09,15,14,08,26.00
2014,09,15,14,09,25.90
2014,09,15,14,10,26.00
2014,09,15,14,11,26.00
2014,09,15,14,12,26.00
2014,09,15,14,13,26.00
2014,09,15,14,14,26.00
2014,09,15,14,15,26.00
2014,09,15,14,16,26.10
2014,09,15,14,17,26.20
2014,09,15,14,18,26.20
2014,09,15,14,19,26.20
2014,09,15,14,20,26.30
2014,09,15,14,21,26.30
2014,09,15,14,22,26.30
2014,09,15,14,23,26.30
2014,09,15,14,24,26.30
2014,09,15,14,25,26.30
2014,09,15,14,26,26.20
2014,09,15,14,27,26.20
2014,09,15,14,28,26.20
2014,09,15,14,29,26.20
2014,09,15,14,30,26.20
2014,09,15,14,31,26.20
2014,09,15,14,32,26.20
2014,09,15,14,33,26.20
2014,09,15,14,34,26.30
2014,09,15,14,35,26.40
2014,09,15,14,36,26.50
2014,09,15,14,37,26.60
2014,09,15,14,38,26.60
2014,09,15,14,39,26.70
2014,09,15,14,40,26.70
2014,09,15,14,41,26.80
2014,09,15,14,42,26.80
2014,09,15,14,43,26.80
2014,09,15,14,44,26.70
2014,09,15,14,45,26.60
2014,09,15,14,46,26.60
2014,09,15,14,47,26.50
2014,09,15,14,48,26.40
2014,09,15,14,49,26.20
2014,09,15,14,50,26.10
2014,09,15,14,51,26.00
2014,09,15,14,52,26.00
2014,09,15,14,53,26.00
2014,09,15,14,54,25.90
2014,09,15,14,55,25.80
2014,09,15,14,56,25.80
2014,09,15,14,57,25.70
2014,09,15,14,58,25.50
2014,09,15,14,59,25.40
2014,09,15,15,00,25.50
2014,09,15,15,01,25.60
2014,09,15,15,02,25.60
2014,09,15,15,03,25.80
2014,09,15,15,04,25.90
2014,09,15,15,05,26.00
2014,09,15,15,06,26.10
2014,09,15,15,07,26.10
2014,09,15,15,08,26.00
2014,09,15,15,09,25.90
2014,09,15,15,10,25.90
2014,09,15,15,11,25.90
2014,09,15,15,12,25.90
2014,09,15,15,13,25.90
2014,09,15,15,14,25.70
2014,09,15,15,15,25.50
2014,09,15,15,16,25.30
2014,09,15,15,17,25.20
2014,09,15,15,18,25.10
2014,09,15,15,19,25.00
2014,09,15,15,20,25.00
2014,09,15,15,21,25.00
2014,09,15,15,22,25.00
2014,09,15,15,23,25.00
2014,09,15,15,24,25.00
2014,09,15,15,25,25.10
2014,09,15,15,26,25.10
2014,09,15,15,27,25.10
2014,09,15,15,28,25.10
2014,09,15,15,29,25.10
2014,09,15,15,30,25.00
2014,09,15,15,31,25.00
2014,09,15,15,32,25.00
2014,09,15,15,33,25.00
2014,09,15,15,34,24.90
2014,09,15,15,35,24.80
2014,09,15,15,36,24.80
2014,09,15,15,37,24.50
2014,09,15,15,38,24.40
2014,09,15,15,39,24.40
2014,09,15,15,40,24.30
2014,09,15,15,41,24.30
2014,09,15,15,42,24.30
2014,09,15,15,43,24.30
2014,09,15,15,44,24.30
2014,09,15,15,45,24.30
2014,09,15,15,46,24.30
2014,09,15,15,47,24.20
2014,09,15,15,48,24.00
2014,09,15,15,49,23.80
2014,09,15,15,50,23.70
2014,09,15,15,51,23.70
2014,09,15,15,52,23.50
2014,09,15,15,53,23.30
2014,09,15,15,54,23.00
2014,09,15,15,55,22.80
2014,09,15,15,56,22.60
2014,09,15,15,57,22.50
2014,09,15,15,58,22.40
2014,09,15,15,59,22.30
2014,09,15,16,00,22.30
2014,09,15,16,01,22.30
2014,09,15,16,02,22.20
2014,09,15,16,03,22.10
2014,09,15,16,04,22.00
2014,09,15,16,05,21.90
2014,09,15,16,06,21.80
2014,09,15,16,07,21.80
2014,09,15,16,08,21.70
2014,09,15,16,09,21.60
2014,09,15,16,10,21.60
2014,09,15,16,11,21.60
2014,09,15,16,12,21.60
2014,09,15,16,13,21.60
2014,09,15,16,14,21.60
2014,09,15,16,15,21.60
2014,09,15,16,16,21.70
2014,09,15,16,17,21.70
2014,09,15,16,18,21.80
2014,09,15,16,19,21.90
2014,09,15,16,20,21.90
2014,09,15,16,21,21.90
2014,09,15,16,22,22.00
2014,09,15,16,23,22.00
2014,09,15,16,24,22.00
2014,09,15,16,25,22.00
2014,09,15,16,26,22.00
2014,09,15,16,27,22.00
2014,09,15,16,28,22.10
2014,09,15,16,29,22.10
2014,09,15,16,30,22.20
2014,09,15,16,31,22.30
2014,09,15,16,32,22.30
2014,09,15,16,33,22.40
2014,09,15,16,34,22.50
2014,09,15,16,35,22.50
2014,09,15,16,36,22.50
2014,09,15,16,37,22.50
2014,09,15,16,38,22.50
2014,09,15,16,39,22.50
2014,09,15,16,40,22.50
2014,09,15,16,41,22.50
2014,09,15,16,42,22.50
2014,09,15,16,43,22.50
2014,09,15,16,44,22.50
2014,09,15,16,45,22.50
2014,09,15,16,46,22.50
2014,09,15,16,47,22.50
2014,09,15,16,48,22.50
2014,09,15,16,49,22.60
2014,09,15,16,50,22.60
2014,09,15,16,51,22.70
2014,09,15,16,52,22.70
2014,09,15,16,53,22.80
2014,09,15,16,54,22.80
2014,09,15,16,55,22.80
2014,09,15,16,56,22.80
2014,09,15,16,57,22.70
2014,09,15,16,58,22.60
2014,09,15,16,59,22.50
2014,09,15,17,00,22.30
2014,09,15,17,01,22.20
2014,09,15,17,02,22.00
2014,09,15,17,03,21.90
2014,09,15,17,04,21.80
2014,09,15,17,05,21.80
2014,09,15,17,06,21.70
2014,09,15,17,07,21.70
2014,09,15,17,08,21.70
2014,09,15,17,09,21.60
2014,09,15,17,10,21.50
2014,09,15,17,11,21.40
2014,09,15,17,12,21.40
2014,09,15,17,13,21.30
2014,09,15,17,14,21.30
2014,09,15,17,15,21.40
2014,09,15,17,16,21.40
2014,09,15,17,17,21.30
2014,09,15,17,18,21.30
2014,09,15,17,19,21.30